Weather History for Cody, WY

Change the Weather History Date:

Monday, March 25, 2013

  Actual Average Record
Temperature  
Mean Temperature 25 °F -  
Max Temperature 42 °F 52 °F 73 °F (1956)
Min Temperature 8 °F 25 °F -22 °F (1955)
Degree Days  
Heating Degree Days 40    
Moisture  
Dew Point 6 °F    
Average Humidity 45    
Maximum Humidity 79    
Minimum Humidity 21    
Precipitation  
Precipitation 0.00 in - - ()
Sea Level Pressure  
Sea Level Pressure 30.08 in    
Wind  
Wind Speed 6 mph (South)    
Max Wind Speed 18 mph    
Max Gust Speed 24 mph    
Visibility 10 miles    
Events      
Averages and records for this station are not official NWS values.
T = Trace of Precipitation, MM = Missing Value Source: NWS Daily Summary

Daily Weather History Graph

Daily Weather History Graph

Search for Another Location

Airport:

Trip Planner

Search our weather history database for the weather conditions in past years. The results will help you decide how hot, cold, wet, or windy it might be!

Date:

Astronomy

Mar. 25, 2013 Rise Set
Actual Time 7:09 AM MDT 7:35 PM MDT
Civil Twilight 6:40 AM MDT 8:04 PM MDT
Nautical Twilight 6:05 AM MDT 8:38 PM MDT
Astronomical Twilight 5:30 AM MDT 9:14 PM MDT
Moon 6:08 PM MDT (3/25) 5:57 AM MDT (3/25)
Length of Visible Light 13h 24m
Length of Day
12h 25m
Waxing Gibbous, 97% of the Moon is Illuminated
Mar 25
Waxing Gibbous
Mar 27
Full
Apr 2
Last Quarter
Apr 10
New
Apr 18
First Quarter

Hourly Weather History & Observations

Time (MDT) Temp. Windchill Dew Point Humidity Pressure Visibility Wind Dir Wind Speed Gust Speed Precip Events Conditions
12:35 AM 17.6 °F 12.3 °F 8.6 °F 68% 30.16 in 10.0 mi WSW 3.5 mph - N/A   Clear
12:55 AM 17.6 °F 8.2 °F 8.6 °F 68% 30.16 in 10.0 mi SSW 6.9 mph - N/A   Clear
1:15 AM 17.6 °F 10.7 °F 10.4 °F 73% 30.15 in 10.0 mi WSW 4.6 mph - N/A   Clear
1:35 AM 17.6 °F 10.7 °F 8.6 °F 68% 30.15 in 10.0 mi West 4.6 mph - N/A   Clear
1:55 AM 15.8 °F - 6.8 °F 68% 30.15 in 10.0 mi Calm Calm - N/A   Clear
2:15 AM 17.6 °F - 8.6 °F 68% 30.15 in 10.0 mi Calm Calm - N/A   Clear
2:35 AM 14.0 °F - 3.2 °F 62% 30.15 in 10.0 mi Calm Calm - N/A   Clear
2:55 AM 15.8 °F - 6.8 °F 68% 30.15 in 10.0 mi Calm Calm - N/A   Clear
3:15 AM 14.0 °F 6.5 °F 8.6 °F 79% 30.15 in 10.0 mi SW 4.6 mph - N/A   Clear
3:35 AM 12.2 °F - 5.0 °F 73% 30.15 in 10.0 mi Calm Calm - N/A   Clear
4:15 AM 10.4 °F - 5.0 °F 79% 30.15 in 10.0 mi Calm Calm - N/A   Clear
4:35 AM 12.2 °F - 6.8 °F 79% 30.15 in 10.0 mi Calm Calm - N/A   Clear
4:55 AM 12.2 °F - 5.0 °F 73% 30.15 in 10.0 mi Calm Calm - N/A   Clear
5:15 AM 12.2 °F - 6.8 °F 79% 30.15 in 10.0 mi Calm Calm - N/A   Clear
5:35 AM 12.2 °F - 5.0 °F 73% 30.15 in 10.0 mi Calm Calm - N/A   Clear
6:15 AM 8.6 °F - -0.4 °F 67% 30.15 in 10.0 mi Calm Calm - N/A   Clear
6:35 AM 15.8 °F 7.2 °F 6.8 °F 68% 30.15 in 10.0 mi South 5.8 mph - N/A   Clear
6:55 AM 15.8 °F 6.1 °F 6.8 °F 68% 30.15 in 10.0 mi South 6.9 mph - N/A   Clear
7:15 AM 15.8 °F 5.1 °F 5.0 °F 62% 30.15 in 10.0 mi South 8.1 mph - N/A   Clear
7:35 AM 15.8 °F 6.1 °F 5.0 °F 62% 30.15 in 10.0 mi SSW 6.9 mph - N/A   Clear
7:55 AM 17.6 °F 4.3 °F 3.2 °F 53% 30.15 in 10.0 mi SW 12.7 mph - N/A   Clear
8:15 AM 19.4 °F 9.5 °F 6.8 °F 58% 30.14 in 10.0 mi WSW 8.1 mph - N/A   Clear
8:35 AM 21.2 °F 14.9 °F 5.0 °F 50% 30.14 in 10.0 mi WSW 4.6 mph - N/A   Clear
8:55 AM 24.8 °F 16.1 °F 5.0 °F 43% 30.14 in 10.0 mi SW 8.1 mph - N/A   Clear
9:15 AM 24.8 °F 15.3 °F 3.2 °F 40% 30.14 in 10.0 mi SW 9.2 mph - N/A   Clear
9:35 AM 28.4 °F 19.1 °F 5.0 °F 37% 30.13 in 10.0 mi SSW 10.4 mph - N/A   Clear
9:55 AM 28.4 °F 17.0 °F 3.2 °F 34% 30.13 in 10.0 mi SSW 15.0 mph - N/A   Clear
10:15 AM 30.2 °F 19.8 °F 3.2 °F 32% 30.13 in 10.0 mi SSW 13.8 mph - N/A   Clear
10:35 AM 30.2 °F 20.8 °F 3.2 °F 32% 30.13 in 10.0 mi South 11.5 mph - N/A   Clear
10:55 AM 30.2 °F 20.8 °F 3.2 °F 32% 30.13 in 10.0 mi South 11.5 mph - N/A   Clear
11:15 AM 30.2 °F 21.3 °F 5.0 °F 34% 30.12 in 10.0 mi SSE 10.4 mph - N/A   Clear
11:35 AM 33.8 °F 25.8 °F 6.8 °F 32% 30.12 in 10.0 mi South 10.4 mph - N/A   Clear
12:15 PM 35.6 °F 29.2 °F 5.0 °F 28% 30.10 in 10.0 mi SE 8.1 mph - N/A   Clear
12:35 PM 37.4 °F 29.3 °F 5.0 °F 26% 30.09 in 10.0 mi ESE 12.7 mph 16.1 mph N/A   Clear
12:55 PM 37.4 °F 30.3 °F 3.2 °F 24% 30.09 in 10.0 mi South 10.4 mph - N/A   Clear
1:15 PM 37.4 °F 28.5 °F 3.2 °F 24% 30.08 in 10.0 mi SSE 15.0 mph 19.6 mph N/A   Clear
1:35 PM 39.2 °F 32.5 °F 8.6 °F 28% 30.07 in 10.0 mi SE 10.4 mph 19.6 mph N/A   Clear
1:55 PM 39.2 °F 33.0 °F 6.8 °F 26% 30.06 in 10.0 mi SSE 9.2 mph 18.4 mph N/A   Clear
2:15 PM 39.2 °F 30.5 °F 5.0 °F 24% 30.05 in 10.0 mi SE 16.1 mph 19.6 mph N/A   Clear
2:35 PM 39.2 °F 30.8 °F 5.0 °F 24% 30.03 in 10.0 mi SE 15.0 mph 24.2 mph N/A   Clear
2:55 PM 41.0 °F 33.5 °F 5.0 °F 23% 30.03 in 10.0 mi SE 13.8 mph 19.6 mph N/A   Clear
3:35 PM 42.8 °F 34.8 °F 5.0 °F 21% 30.01 in 10.0 mi SE 17.3 mph 23.0 mph N/A   Clear
3:55 PM 42.8 °F 35.1 °F 5.0 °F 21% 30.01 in 10.0 mi SE 16.1 mph 23.0 mph N/A   Clear
4:15 PM 42.8 °F 34.8 °F 5.0 °F 21% 30.00 in 10.0 mi SE 17.3 mph 23.0 mph N/A   Clear
4:35 PM 42.8 °F 34.8 °F 5.0 °F 21% 30.00 in 10.0 mi SE 17.3 mph 23.0 mph N/A   Clear
4:55 PM 42.8 °F 34.5 °F 6.8 °F 23% 29.99 in 10.0 mi SE 18.4 mph 23.0 mph N/A   Clear
5:15 PM 42.8 °F 35.1 °F 6.8 °F 23% 29.99 in 10.0 mi SE 16.1 mph 21.9 mph N/A   Clear
5:35 PM 41.0 °F 32.5 °F 6.8 °F 24% 29.99 in 10.0 mi ESE 17.3 mph 21.9 mph N/A   Clear
5:55 PM 41.0 °F 32.5 °F 6.8 °F 24% 29.99 in 10.0 mi SE 17.3 mph - N/A   Clear
6:15 PM 41.0 °F 32.8 °F 6.8 °F 24% 29.99 in 10.0 mi SE 16.1 mph - N/A   Clear
6:35 PM 39.2 °F 31.2 °F 6.8 °F 26% 29.99 in 10.0 mi SE 13.8 mph - N/A   Clear
6:55 PM 39.2 °F 31.6 °F 6.8 °F 26% 29.99 in 10.0 mi SE 12.7 mph - N/A   Clear
7:15 PM 37.4 °F 30.8 °F 6.8 °F 28% 29.99 in 10.0 mi ESE 9.2 mph - N/A   Clear
7:35 PM 35.6 °F 29.2 °F 6.8 °F 30% 29.99 in 10.0 mi ESE 8.1 mph - N/A   Clear
7:55 PM 33.8 °F 27.7 °F 8.6 °F 35% 29.99 in 10.0 mi ESE 6.9 mph - N/A   Clear
8:35 PM 32.0 °F 27.5 °F 8.6 °F 38% 29.99 in 10.0 mi South 4.6 mph - N/A   Clear
8:55 PM 30.2 °F 24.3 °F 8.6 °F 40% 29.99 in 10.0 mi SSW 5.8 mph - N/A   Clear
9:15 PM 28.4 °F 21.2 °F 8.6 °F 43% 29.99 in 10.0 mi South 6.9 mph - N/A   Clear
9:35 PM 28.4 °F 22.2 °F 8.6 °F 43% 30.00 in 10.0 mi South 5.8 mph - N/A   Clear
9:55 PM 24.8 °F 17.9 °F 6.8 °F 46% 30.00 in 10.0 mi South 5.8 mph - N/A   Clear
10:15 PM 26.6 °F - 10.4 °F 51% 30.00 in 10.0 mi Calm Calm - N/A   Clear
10:35 PM 28.4 °F 24.6 °F 8.6 °F 43% 30.00 in 10.0 mi SSW 3.5 mph - N/A   Clear
10:55 PM 26.6 °F 20.0 °F 6.8 °F 43% 30.00 in 10.0 mi SSE 5.8 mph - N/A   Clear
11:15 PM 24.8 °F 19.1 °F 6.8 °F 46% 30.00 in 10.0 mi SSE 4.6 mph - N/A   Clear
11:35 PM 24.8 °F - 6.8 °F 46% 30.00 in 10.0 mi Calm Calm - N/A   Clear
11:55 PM 24.8 °F - 6.8 °F 46% 29.99 in 10.0 mi Calm Calm - N/A   Clear